GPS BIIR-5 (PRN 28)

Last updated on Jan. 16, 2021, 6:29 a.m. UTC

1 26407U 00040A   21015.93111984 -.00000042  00000-0  00000-0 0  9995
2 26407  55.8351 293.7784 0183206 282.0679  89.8553  2.00564375150277
UTC
Height (km)
Latitude
Longitude
Inclination
Orbital Period
UTC large
Height (km)
Speed (km/s)
/
Latitude / Longitude
Inclination (degrees)
Orbital Period (minutes)
Azimuth
Elevation
Range (km)
Doppler Factor
iOS Compass Heading
iOS Angle

Next 30 passes for location: Hong Kong

Rise time Rise Azimuth (degrees) Set time Set Azimuth (degrees) Duration Max altitude (degrees)

No matching passes for this satellites